Lincoln, NE

6:36 PM CST on February 26, 2017 (GMT -0600)
Lincoln Municipal

Weather History for KLNK - September, 2014

Change the Weather History Date:

Wednesday, September 24, 2014

  Actual Average Record
Temperature  
Mean Temperature 68 °F 62 °F  
Max Temperature 76 °F 75 °F 93 °F (2005)
Min Temperature 59 °F 49 °F 31 °F (1942)
Degree Days  
Heating Degree Days 0 5  
Month to date heating degree days 93 57  
Since 1 July heating degree days 95 63  
Cooling Degree Days 3 2  
Month to date cooling degree days 87 112  
Year to date cooling degree days 1198 1147  
Growing Degree Days 17 (Base 50)    
Moisture  
Dew Point 58 °F    
Average Humidity 72    
Maximum Humidity 84    
Minimum Humidity 60    
Precipitation  
Precipitation 0.03 in 0.09 in 1.74 in (1913)
Month to date precipitation 3.59 2.50  
Year to date precipitation 27.29 24.08  
Snow  
Snow 0.00 in 0.00 in - ()
Month to date snowfall 0.0 0.0  
Since 1 July snowfall 0.0 0.0  
Snow Depth 0.00 in    
Sea Level Pressure  
Sea Level Pressure 30.09 in    
Wind  
Wind Speed 10 mph (South)    
Max Wind Speed 21 mph    
Max Gust Speed 27 mph    
Visibility 10 miles    
Events Rain , Thunderstorm    
T = Trace of Precipitation, MM = Missing Value Source: NWS Daily Summary

Daily Weather History Graph

Daily Weather History Graph

Search for Another Location

Airport or City:

Trip Planner

Search our weather history database for the weather conditions in past years. The results will help you decide how hot, cold, wet, or windy it might be!

Date:

Astronomy

Sep. 24, 2014 Rise Set
Actual Time 7:16 AM CDT 7:20 PM CDT
Civil Twilight 6:49 AM CDT 7:48 PM CDT
Nautical Twilight 6:17 AM CDT 8:20 PM CDT
Astronomical Twilight 5:44 AM CDT 8:52 PM CDT
Moon 7:38 AM CDT (9/24) 7:31 PM CDT (9/24)
Length of Visible Light 12h 58m
Length of Day
12h 04m
New Moon, 0% of the Moon is Illuminated
Sep 24
New Moon
Oct 1
First Quarter
Oct 8
Full
Oct 15
Last Quarter
Oct 23
New

Hourly Weather History & Observations

Time (CDT) Temp. Dew Point Humidity Pressure Visibility Wind Dir Wind Speed Gust Speed Precip Events Conditions
12:54 AM 63.0 °F 54.0 °F 72% 30.08 in 10.0 mi South 10.4 mph - N/A   Clear
1:54 AM 63.0 °F 54.0 °F 72% 30.06 in 10.0 mi South 11.5 mph - N/A   Partly Cloudy
2:54 AM 63.0 °F 54.0 °F 72% 30.06 in 10.0 mi South 11.5 mph - N/A   Clear
3:54 AM 62.1 °F 55.0 °F 78% 30.04 in 10.0 mi South 16.1 mph - 0.00 in   Mostly Cloudy
4:54 AM 61.0 °F 55.9 °F 83% 30.05 in 10.0 mi South 13.8 mph - 0.02 in   Mostly Cloudy
5:54 AM 60.1 °F 55.9 °F 86% 30.08 in 10.0 mi Variable 3.5 mph - N/A   Partly Cloudy
6:54 AM 60.1 °F 57.0 °F 90% 30.06 in 10.0 mi SE 9.2 mph - 0.00 in Rain , Thunderstorm Light Rain
7:17 AM 60.1 °F 57.0 °F 90% 30.09 in 10.0 mi South 6.9 mph - 0.01 in Rain Light Rain
7:54 AM 60.1 °F 57.0 °F 90% 30.10 in 9.0 mi SSE 5.8 mph - 0.01 in   Overcast
8:54 AM 62.1 °F 57.9 °F 86% 30.10 in 10.0 mi SSW 11.5 mph - N/A   Overcast
9:54 AM 64.0 °F 57.9 °F 80% 30.12 in 10.0 mi South 15.0 mph - N/A   Overcast
10:54 AM 66.0 °F 59.0 °F 78% 30.12 in 10.0 mi SSW 15.0 mph - N/A   Mostly Cloudy
11:54 AM 70.0 °F 60.1 °F 71% 30.12 in 10.0 mi South 12.7 mph - N/A   Mostly Cloudy
12:54 PM 72.0 °F 60.1 °F 66% 30.11 in 10.0 mi SW 11.5 mph - N/A   Partly Cloudy
1:28 PM 73.9 °F 60.1 °F 62% 30.12 in 10.0 mi SSW 8.1 mph - N/A   Mostly Cloudy
1:54 PM 73.0 °F 61.0 °F 66% 30.09 in 10.0 mi SSW 10.4 mph 18.4 mph N/A   Mostly Cloudy
2:54 PM 73.0 °F 61.0 °F 66% 30.09 in 9.0 mi SSE 12.7 mph - N/A   Overcast
3:11 PM 73.0 °F 61.0 °F 66% 30.11 in 9.0 mi SSE 10.4 mph - N/A   Overcast
3:54 PM 73.9 °F 62.1 °F 66% 30.08 in 10.0 mi SSE 10.4 mph - N/A   Overcast
4:54 PM 75.9 °F 62.1 °F 62% 30.07 in 10.0 mi SSE 11.5 mph - N/A   Mostly Cloudy
5:54 PM 75.0 °F 61.0 °F 62% 30.07 in 9.0 mi SSE 11.5 mph - N/A   Clear
6:54 PM 73.0 °F 60.1 °F 64% 30.08 in 9.0 mi SSE 9.2 mph - N/A   Clear
7:54 PM 69.1 °F 60.1 °F 73% 30.10 in 10.0 mi SSE 9.2 mph - N/A   Clear
8:54 PM 64.0 °F 59.0 °F 84% 30.11 in 10.0 mi South 8.1 mph - N/A   Clear
9:54 PM 64.0 °F 59.0 °F 84% 30.13 in 10.0 mi South 8.1 mph - N/A   Clear
10:54 PM 62.1 °F 57.9 °F 86% 30.14 in 10.0 mi South 6.9 mph - N/A   Clear
11:54 PM 62.1 °F 57.9 °F 86% 30.14 in 10.0 mi SSE 5.8 mph - N/A   Clear